CW8880 Weather Reports


Display with metric or nautical units.
time (UTC)temp
F
wind
direction
speed
MPH
gust
MPH
rain 1hr
in
rain 24hr
in
rain mn
in
humidity
%
barometer
mb
20210619143830 79 168 4.0 8.0 0.00 0.00 0.00 35 1014.1
20210619143336 79 172 3.0 8.0 0.00 0.00 0.00 35 1014.2
20210619142839 79 113 2.0 5.0 0.00 0.00 0.00 35 1014.3
20210619142341 79 136 1.0 5.0 0.00 0.00 0.00 36 1014.2
20210619141847 79 117 1.0 5.0 0.00 0.00 0.00 37 1014.2
20210619141332 79 117 3.0 5.0 0.00 0.00 0.00 38 1014.1
20210619140836 78 313 3.0 4.0 0.00 0.00 0.00 40 1013.9
20210619140343 77 311 2.0 3.0 0.00 0.00 0.00 43 1014.0
20210619135845 76 311 1.0 3.0 0.00 0.00 0.00 43 1014.0
20210619135331 76 311 1.0 1.0 0.00 0.00 0.00 45 1014.0
20210619134835 76 311 0.0 3.0 0.00 0.00 0.00 43 1014.2
20210619134337 76 311 1.0 3.0 0.00 0.00 0.00 45 1014.1
20210619133840 76 311 1.0 4.0 0.00 0.00 0.00 44 1014.0
20210619133341 76 311 3.0 4.0 0.00 0.00 0.00 40 1014.0
20210619132843 75 311 0.0 2.0 0.00 0.00 0.00 41 1014.1
20210619132345 75 311 1.0 3.0 0.00 0.00 0.00 40 1014.1
20210619131849 75 311 1.0 3.0 0.00 0.00 0.00 43 1014.1
20210619131330 76 311 1.0 4.0 0.00 0.00 0.00 43 1014.1
20210619130837 76 311 1.0 6.0 0.00 0.00 0.00 41 1013.9
20210619130343 76 311 3.0 6.0 0.00 0.00 0.00 38 1013.8
20210619125846 76 341 1.0 4.0 0.00 0.00 0.00 37 1013.9
20210619124844 76 342 0.0 4.0 0.00 0.00 0.00 39 1014.3
20210619124345 75 342 0.0 5.0 0.00 0.00 0.00 40 1014.3
20210619123848 75 342 2.0 5.0 0.00 0.00 0.00 41 1014.4
20210619123331 74 302 2.0 3.0 0.00 0.00 0.00 43 1014.1
20210619122836 75 302 1.0 2.0 0.00 0.00 0.00 43 1013.9
20210619122341 74 302 1.0 2.0 0.00 0.00 0.00 38 1013.9
20210619121843 75 302 0.0 4.0 0.00 0.00 0.00 43 1014.0
20210619121347 75 302 3.0 4.0 0.00 0.00 0.00 41 1013.9
20210619120830 75 302 0.0 1.0 0.00 0.00 0.00 39 1013.8
20210619120337 75 302 0.0 2.0 0.00 0.00 0.00 37 1013.8
20210619115841 75 302 0.0 5.0 0.00 0.00 0.00 39 1013.8
20210619115327 74 302 3.0 5.0 0.00 0.00 0.00 41 1013.8
20210619114832 75 301 1.0 3.0 0.00 0.00 0.00 42 1013.7
20210619114338 75 301 1.0 3.0 0.00 0.00 0.00 41 1013.5
20210619113843 76 301 1.0 3.0 0.00 0.00 0.00 39 1013.4
20210619113346 76 301 0.0 3.0 0.00 0.00 0.00 37 1013.3
20210619112831 76 300 1.0 3.0 0.00 0.00 0.00 37 1013.4
20210619112336 76 300 1.0 5.0 0.00 0.00 0.00 36 1013.3
20210619111838 77 300 2.0 5.0 0.00 0.00 0.00 36 1013.3
20210619111340 78 300 1.0 2.0 0.00 0.00 0.00 33 1013.2
20210619110848 78 301 1.0 4.0 0.00 0.00 0.00 32 1013.2
20210619110330 78 301 2.0 4.0 0.00 0.00 0.00 32 1013.3
20210619105834 79 301 0.0 3.0 0.00 0.00 0.00 31 1013.3
20210619105336 79 301 0.0 3.0 0.00 0.00 0.00 31 1013.2
20210619104838 79 301 1.0 5.0 0.00 0.00 0.00 30 1013.2
20210619104340 79 301 2.0 5.0 0.00 0.00 0.00 30 1013.0
20210619103842 79 344 2.0 5.0 0.00 0.00 0.00 31 1013.0
20210619103346 79 333 3.0 5.0 0.00 0.00 0.00 31 1013.0
20210619102831 78 336 3.0 6.0 0.00 0.00 0.00 31 1013.0
20210619102337 77 324 2.0 6.0 0.00 0.00 0.00 32 1013.1
20210619101842 76 319 3.0 5.0 0.00 0.00 0.00 34 1013.0
20210619101349 75 288 2.0 4.0 0.00 0.00 0.00 35 1013.2
20210619100830 75 288 2.0 4.0 0.00 0.00 0.00 37 1013.2
20210619100336 76 287 1.0 5.0 0.00 0.00 0.00 36 1013.1
20210619095840 77 287 2.0 5.0 0.00 0.00 0.00 34 1012.9
20210619095342 77 287 2.0 3.0 0.00 0.00 0.00 34 1013.0
20210619094843 77 287 1.0 4.0 0.00 0.00 0.00 33 1013.0
20210619094345 77 287 1.0 3.0 0.00 0.00 0.00 32 1013.0
20210619093909 77 287 0.0 2.0 0.00 0.00 0.00 33 1013.0
20210619093343 78 287 0.0 2.0 0.00 0.00 0.00 32 1013.0
20210619092844 78 287 1.0 3.0 0.00 0.00 0.00 33 1013.0
20210619092348 78 287 2.0 4.0 0.00 0.00 0.00 33 1013.1
20210619091829 78 287 2.0 5.0 0.00 0.00 0.00 32 1013.0
20210619090830 80 300 2.0 5.0 0.00 0.00 0.00 32 1012.7
20210619090338 80 58 1.0 4.0 0.00 0.00 0.00 29 1012.7
20210619085841 79 56 1.0 5.0 0.00 0.00 0.00 30 1012.7
20210619085343 79 56 1.0 5.0 0.00 0.00 0.00 30 1012.7
20210619084846 79 9 1.0 5.0 0.00 0.00 0.00 31 1012.8
20210619084348 78 9 2.0 6.0 0.00 0.00 0.00 32 1012.9
20210619083831 78 345 4.0 5.0 0.00 0.00 0.00 32 1013.0
20210619083336 78 343 3.0 6.0 0.00 0.00 0.00 32 1013.2
20210619082842 77 343 3.0 6.0 0.00 0.00 0.00 33 1013.2
20210619082330 77 296 1.0 4.0 0.00 0.00 0.00 35 1013.2
20210619081836 77 271 0.0 2.0 0.00 0.00 0.00 36 1013.3
20210619081339 77 271 1.0 3.0 0.00 0.00 0.00 33 1013.3
20210619080845 77 271 1.0 3.0 0.00 0.00 0.00 35 1013.0
20210619080347 77 271 1.0 2.0 0.00 0.00 0.00 36 1013.1
20210619075851 77 271 0.0 3.0 0.00 0.00 0.00 37 1013.2
20210619075349 77 271 1.0 3.0 0.00 0.00 0.00 35 1013.2
20210619074853 77 271 1.0 3.0 0.00 0.00 0.00 36 1013.1
20210619074329 77 271 1.0 3.0 0.00 0.00 0.00 36 1013.0
20210619073833 77 271 2.0 3.0 0.00 0.00 0.00 32 1013.1
20210619073336 78 271 1.0 3.0 0.00 0.00 0.00 31 1013.1
20210619072843 78 271 1.0 2.0 0.00 0.00 0.00 32 1012.9
20210619072326 78 271 0.0 1.0 0.00 0.00 0.00 33 1013.0
20210619071832 78 271 0.0 1.0 0.00 0.00 0.00 32 1012.9
20210619071343 79 271 0.0 2.0 0.00 0.00 0.00 31 1013.0
20210619070848 79 271 0.0 3.0 0.00 0.00 0.00 31 1012.8
20210619070329 79 271 2.0 3.0 0.00 0.00 0.00 29 1012.8
20210619065835 79 272 0.0 1.0 0.00 0.00 0.00 29 1012.8
20210619065338 79 272 0.0 3.0 0.00 0.00 0.00 30 1012.7
20210619064845 79 272 1.0 6.0 0.00 0.00 0.00 29 1012.8
20210619064347 79 272 3.0 6.0 0.00 0.00 0.00 29 1012.8
20210619063829 80 234 2.0 5.0 0.00 0.00 0.00 30 1012.7
20210619063335 79 325 1.0 5.0 0.00 0.00 0.00 30 1012.5
20210619062838 79 323 2.0 5.0 0.00 0.00 0.00 31 1012.7
20210619062340 79 291 2.0 5.0 0.00 0.00 0.00 33 1012.8
20210619061830 79 290 0.0 3.0 0.00 0.00 0.00 32 1012.8
20210619061333 79 290 1.0 3.0 0.00 0.00 0.00 31 1012.8
20210619060838 79 290 1.0 2.0 0.00 0.00 0.00 33 1012.9
20210619060343 79 290 1.0 3.0 0.00 0.00 0.00 33 1012.9
20210619055842 78 290 1.0 3.0 0.00 0.00 0.00 31 1013.0
20210619055343 78 290 2.0 4.0 0.00 0.00 0.00 32 1013.1
20210619054829 78 290 3.0 5.0 0.00 0.00 0.00 33 1013.1
20210619054332 78 290 4.0 5.0 0.00 0.00 0.00 33 1013.0
20210619053838 79 291 1.0 4.0 0.00 0.00 0.00 35 1012.8
20210619053342 79 291 0.0 2.0 0.00 0.00 0.00 36 1012.9
20210619052846 79 291 0.0 3.0 0.00 0.00 0.00 34 1012.8
20210619052350 80 291 2.0 3.0 0.00 0.00 0.00 34 1013.0
20210619051832 81 291 1.0 2.0 0.00 0.00 0.00 31 1013.0
20210619051336 82 291 0.0 1.0 0.00 0.00 0.00 30 1013.0
20210619050840 82 291 0.0 4.0 0.00 0.00 0.00 27 1012.9
20210619050342 82 291 2.0 4.0 0.00 0.00 0.00 27 1012.9
20210619045844 81 291 1.0 2.0 0.00 0.00 0.00 27 1012.9
20210619045328 81 291 1.0 1.0 0.00 0.00 0.00 29 1012.9
20210619044832 82 291 0.0 1.0 0.00 0.00 0.00 29 1012.8
20210619044340 82 291 0.0 1.0 0.00 0.00 0.00 29 1012.8
20210619043845 82 291 0.0 1.0 0.00 0.00 0.00 27 1012.7
20210619043332 83 291 0.0 1.0 0.00 0.00 0.00 27 1012.8
20210619042836 83 291 0.0 1.0 0.00 0.00 0.00 27 1012.7
20210619042339 83 291 0.0 3.0 0.00 0.00 0.00 27 1012.8
20210619041844 83 291 1.0 4.0 0.00 0.00 0.00 27 1012.7
20210619041348 83 290 2.0 4.0 0.00 0.00 0.00 26 1012.7
20210619040831 84 293 2.0 4.0 0.00 0.00 0.00 26 1012.6
20210619040338 84 300 3.0 5.0 0.00 0.00 0.00 25 1012.4
20210619035839 84 308 2.0 5.0 0.00 0.00 0.00 26 1012.4
20210619035341 84 317 3.0 5.0 0.00 0.00 0.00 25 1012.3
20210619034844 84 303 2.0 5.0 0.00 0.00 0.00 26 1012.2
20210619034344 84 307 2.0 5.0 0.00 0.00 0.00 25 1012.1
20210619033832 85 306 2.0 5.0 0.00 0.00 0.00 25 1012.2
20210619032828 85 338 3.0 4.0 0.00 0.00 0.00 25 1012.0
20210619032334 86 338 2.0 4.0 0.00 0.00 0.00 25 1011.9
20210619031835 86 338 2.0 3.0 0.00 0.00 0.00 25 1011.7
20210619031339 86 338 2.0 4.0 0.00 0.00 0.00 25 1011.8
20210619030840 87 338 2.0 4.0 0.00 0.00 0.00 25 1011.8
20210619030342 87 339 2.0 4.0 0.00 0.00 0.00 24 1011.8
20210619025844 88 338 2.0 4.0 0.00 0.00 0.00 24 1011.8
20210619025347 88 344 2.0 4.0 0.00 0.00 0.00 24 1011.7
20210619024849 89 344 1.0 3.0 0.00 0.00 0.00 24 1011.8
20210619024332 89 360 1.0 2.0 0.00 0.00 0.00 24 1011.9
20210619023835 89 360 1.0 3.0 0.00 0.00 0.00 24 1011.8
20210619023341 89 360 1.0 3.0 0.00 0.00 0.00 25 1011.7
20210619022846 89 360 1.0 3.0 0.00 0.00 0.00 24 1011.8
20210619022330 89 360 0.0 2.0 0.00 0.00 0.00 26 1011.7
20210619021349 89 360 1.0 2.0 0.00 0.00 0.00 25 1011.6
20210619020832 90 360 1.0 2.0 0.00 0.00 0.00 25 1011.4
20210619020334 90 360 1.0 3.0 0.00 0.00 0.00 24 1011.4
20210619015838 90 360 1.0 3.0 0.00 0.00 0.00 24 1011.4
20210619015341 91 360 1.0 3.0 0.00 0.00 0.00 24 1011.4
20210619014842 91 360 0.0 4.0 0.00 0.00 0.00 24 1011.6
20210619014346 91 360 2.0 4.0 0.00 0.00 0.00 23 1011.6
20210619013849 91 18 2.0 5.0 0.00 0.00 0.00 22 1011.4
20210619013331 91 19 1.0 4.0 0.00 0.00 0.00 23 1011.4
20210619012832 92 18 2.0 5.0 0.00 0.00 0.00 22 1011.3
20210619012339 92 19 2.0 6.0 0.00 0.00 0.00 22 1011.4
20210619011844 92 10 3.0 6.0 0.00 0.00 0.00 21 1011.3
20210619011346 92 11 3.0 6.0 0.00 0.00 0.00 21 1011.3
20210619010831 92 5 3.0 9.0 0.00 0.00 0.00 22 1011.3
20210619010333 92 5 3.0 9.0 0.00 0.00 0.00 22 1011.4
20210619005835 92 37 2.0 7.0 0.00 0.00 0.00 21 1011.3
20210619005340 93 360 2.0 7.0 0.00 0.00 0.00 21 1011.3
20210619004844 93 9 4.0 10.0 0.00 0.00 0.00 20 1011.3
20210619004345 93 349 3.0 10.0 0.00 0.00 0.00 20 1011.3
20210619003831 93 360 2.0 8.0 0.00 0.00 0.00 20 1011.4
20210619003336 93 344 3.0 9.0 0.00 0.00 0.00 20 1011.3
20210619002827 93 17 3.0 9.0 0.00 0.00 0.00 20 1011.3
20210619002330 94 360 4.0 11.0 0.00 0.00 0.00 20 1011.4
20210619001834 94 355 4.0 11.0 0.00 0.00 0.00 20 1011.3
20210619001340 94 5 3.0 7.0 0.00 0.00 0.00 19 1011.3
20210619000841 94 348 3.0 12.0 0.00 0.00 0.00 19 1011.3
20210619000346 94 349 2.0 11.0 0.00 0.00 0.00 22 1011.4
20210618235849 95 345 4.0 10.0 0.00 0.00 0.00 20 1011.4
20210618235330 95 17 2.0 10.0 0.00 0.00 0.00 21 1011.4
20210618234838 95 19 3.0 9.0 0.00 0.00 0.00 20 1011.4
20210618234341 94 342 4.0 9.0 0.00 0.00 0.00 20 1011.4
20210618233827 94 5 3.0 8.0 0.00 0.00 0.00 20 1011.7
20210618233333 95 342 3.0 9.0 0.00 0.00 0.00 20 1011.7
20210618232836 96 355 3.0 10.0 0.00 0.00 0.00 19 1011.7
20210618232339 96 360 3.0 10.0 0.00 0.00 0.00 19 1011.7
20210618231844 97 37 2.0 12.0 0.00 0.00 0.00 20 1011.7
20210618231345 97 37 2.0 12.0 0.00 0.00 0.00 18 1011.8
20210618230848 97 46 3.0 7.0 0.00 0.00 0.00 19 1011.8
20210618230331 97 32 2.0 6.0 0.00 0.00 0.00 18 1011.8
20210618225837 97 26 3.0 9.0 0.00 0.00 0.00 17 1011.7
20210618225338 98 69 3.0 9.0 0.00 0.00 0.00 17 1011.8
20210618224841 98 61 2.0 7.0 0.00 0.00 0.00 17 1011.9
20210618224330 98 59 2.0 7.0 0.00 0.00 0.00 17 1011.9
20210618223834 98 40 4.0 6.0 0.00 0.00 0.00 17 1012.0
20210618223340 98 59 2.0 6.0 0.00 0.00 0.00 18 1012.0
20210618222841 98 360 3.0 6.0 0.00 0.00 0.00 19 1012.0
20210618222344 98 26 2.0 5.0 0.00 0.00 0.00 18 1012.0
20210618221827 97 63 2.0 5.0 0.00 0.00 0.00 18 1012.1
20210618221332 97 344 2.0 5.0 0.00 0.00 0.00 17 1012.2
20210618220835 97 76 2.0 6.0 0.00 0.00 0.00 17 1012.3
20210618220337 98 40 2.0 7.0 0.00 0.00 0.00 16 1012.2
20210618215839 98 17 2.0 7.0 0.00 0.00 0.00 18 1012.4
20210618215341 98 355 1.0 5.0 0.00 0.00 0.00 17 1012.4
20210618214827 97 355 2.0 5.0 0.00 0.00 0.00 17 1012.5
20210618214332 97 336 3.0 5.0 0.00 0.00 0.00 19 1012.5
20210618213836 96 330 1.0 4.0 0.00 0.00 0.00 18 1012.5
20210618213339 96 5 2.0 9.0 0.00 0.00 0.00 19 1012.6
20210618212840 96 20 3.0 9.0 0.00 0.00 0.00 19 1012.7
20210618212342 96 299 3.0 7.0 0.00 0.00 0.00 21 1012.6
20210618211843 95 342 2.0 5.0 0.00 0.00 0.00 21 1012.7
20210618211346 96 350 2.0 5.0 0.00 0.00 0.00 20 1012.7
20210618210829 96 5 3.0 7.0 0.00 0.00 0.00 20 1012.8
20210618210332 96 5 2.0 7.0 0.00 0.00 0.00 19 1012.9
20210618205837 96 52 2.0 5.0 0.00 0.00 0.00 20 1013.0
20210618205339 96 35 1.0 6.0 0.00 0.00 0.00 21 1013.1
20210618204846 96 360 2.0 6.0 0.00 0.00 0.00 22 1013.3
20210618204348 96 360 2.0 6.0 0.00 0.00 0.00 22 1013.3
20210618203830 96 28 2.0 6.0 0.00 0.00 0.00 22 1013.3
20210618203337 95 39 1.0 4.0 0.00 0.00 0.00 23 1013.3
20210618202840 94 38 2.0 6.0 0.00 0.00 0.00 25 1013.5
20210618202343 94 57 2.0 6.0 0.00 0.00 0.00 24 1013.6
20210618201844 93 45 2.0 5.0 0.00 0.00 0.00 26 1013.7
20210618201330 92 318 2.0 5.0 0.00 0.00 0.00 27 1013.9
20210618200836 92 317 2.0 5.0 0.00 0.00 0.00 24 1013.9
20210618200338 93 337 1.0 6.0 0.00 0.00 0.00 26 1014.0
20210618195844 93 26 2.0 6.0 0.00 0.00 0.00 25 1014.1
20210618195330 92 42 1.0 5.0 0.00 0.00 0.00 26 1014.3
20210618194837 92 41 3.0 7.0 0.00 0.00 0.00 28 1014.3
20210618194343 92 90 3.0 7.0 0.00 0.00 0.00 26 1014.4
20210618193845 91 32 2.0 8.0 0.00 0.00 0.00 25 1014.6
20210618193348 91 40 3.0 8.0 0.00 0.00 0.00 26 1014.7
20210618192831 92 71 2.0 4.0 0.00 0.00 0.00 25 1014.8
20210618192338 91 72 1.0 5.0 0.00 0.00 0.00 24 1015.0
20210618191845 91 74 2.0 5.0 0.00 0.00 0.00 26 1015.1
20210618191328 90 56 2.0 5.0 0.00 0.00 0.00 27 1015.2
20210618190834 90 26 2.0 5.0 0.00 0.00 0.00 26 1015.3
20210618190344 89 24 2.0 6.0 0.00 0.00 0.00 26 1015.4
20210618185830 89 15 1.0 6.0 0.00 0.00 0.00 27 1015.4
20210618185337 89 5 2.0 7.0 0.00 0.00 0.00 27 1015.5
20210618184842 89 25 2.0 7.0 0.00 0.00 0.00 26 1015.5
20210618184345 89 9 2.0 7.0 0.00 0.00 0.00 26 1015.7
20210618183830 89 24 1.0 4.0 0.00 0.00 0.00 28 1016.0
20210618183332 88 24 2.0 4.0 0.00 0.00 0.00 28 1016.0
20210618182838 88 24 1.0 6.0 0.00 0.00 0.00 28 1016.1
20210618182343 87 79 1.0 6.0 0.00 0.00 0.00 30 1016.1
20210618181846 87 82 1.0 6.0 0.00 0.00 0.00 30 1016.0
20210618181335 87 96 4.0 6.0 0.00 0.00 0.00 30 1016.0
20210618180927 87 67 1.0 5.0 0.00 0.00 0.00 31 1016.1
20210618175345 85 38 2.0 5.0 0.00 0.00 0.00 30 1016.3
20210618174831 85 48 2.0 10.0 0.00 0.00 0.00 31 1016.5
20210618174333 85 20 3.0 10.0 0.00 0.00 0.00 31 1016.5
20210618173835 84 61 3.0 9.0 0.00 0.00 0.00 32 1016.5
20210618173339 84 33 2.0 5.0 0.00 0.00 0.00 33 1016.4
20210618172839 83 78 2.0 5.0 0.00 0.00 0.00 32 1016.4
20210618172344 83 49 3.0 5.0 0.00 0.00 0.00 32 1016.3
20210618171848 82 32 1.0 5.0 0.00 0.00 0.00 32 1016.4
20210618171331 82 40 2.0 4.0 0.00 0.00 0.00 32 1016.4
20210618170837 81 32 2.0 5.0 0.00 0.00 0.00 32 1016.3
20210618170339 80 360 3.0 5.0 0.00 0.00 0.00 33 1016.3
20210618165842 80 337 1.0 3.0 0.00 0.00 0.00 34 1016.3
20210618165344 79 337 1.0 4.0 0.00 0.00 0.00 34 1016.3
20210618164848 79 327 2.0 4.0 0.00 0.00 0.00 37 1016.3
20210618164331 78 326 1.0 5.0 0.00 0.00 0.00 37 1016.2
20210618163836 77 326 2.0 5.0 0.00 0.00 0.00 38 1016.2
20210618163339 77 323 3.0 5.0 0.00 0.00 0.00 40 1016.2
20210618162846 77 279 2.0 6.0 0.00 0.00 0.00 37 1016.0
20210618162332 77 340 2.0 7.0 0.00 0.00 0.00 38 1016.6
20210618161833 77 291 2.0 7.0 0.00 0.00 0.00 44 1016.6
20210618161341 76 166 3.0 7.0 0.00 0.00 0.00 41 1016.2
20210618160842 76 142 4.0 5.0 0.00 0.00 0.00 40 1016.4
20210618160346 76 42 1.0 3.0 0.00 0.00 0.00 39 1016.3
20210618155832 76 42 2.0 3.0 0.00 0.00 0.00 41 1016.6
20210618155336 76 43 0.0 4.0 0.00 0.00 0.00 41 1016.7
20210618154841 76 43 2.0 4.0 0.00 0.00 0.00 40 1016.8
20210618154344 76 57 2.0 3.0 0.00 0.00 0.00 41 1017.0
20210618153835 75 146 2.0 3.0 0.00 0.00 0.00 40 1017.0
20210618153341 75 148 1.0 3.0 0.00 0.00 0.00 41 1017.1
20210618152844 76 148 2.0 3.0 0.00 0.00 0.00 40 1017.2
20210618152344 76 148 1.0 2.0 0.00 0.00 0.00 39 1017.1
20210618151847 76 147 0.0 3.0 0.00 0.00 0.00 39 1017.0
20210618151330 76 147 2.0 4.0 0.00 0.00 0.00 39 1016.8
20210618150834 76 146 2.0 5.0 0.00 0.00 0.00 38 1016.8
20210618150339 75 148 2.0 5.0 0.00 0.00 0.00 40 1016.9
20210618145840 75 298 1.0 4.0 0.00 0.00 0.00 42 1016.8
20210618145341 74 298 0.0 2.0 0.00 0.00 0.00 45 1016.9
20210618144846 74 298 0.0 2.0 0.00 0.00 0.00 43 1017.0